This demonstration page uses our WeatherBlox Daily Observations layout. Learn more.

Left ArrowRight Arrow

Hourly Observations for April 12, 2018

Temp ( °F °C ) Dew Point ( °F °C ) Humidity (%) Winds ( mph kmh ) Pressure ( in mb ) Visibility ( mi km ) Precip ( " mm )
12:53 am 00:53 Clear 55 12.8 39 3.9 55 55 N 13 20 29.66 1004 10 16 0.00 0.00
1:53 am 01:53 Clear 52 11.1 39 3.9 61 61 N 16 26 29.66 1005 10 16 0.00 0.00
2:53 am 02:53 Clear 49 9.4 40 4.4 71 71 N 13 20 29.67 1005 10 16 0.00 0.00
3:53 am 03:53 Clear 46 7.8 40 4.4 79 79 N 7 11 29.66 1005 8 13 0.00 0.00
4:53 am 04:53 Clear with Mist and Fog 41 5 38 3.3 89 89 NNE 5 7 29.68 1005 6 10 0.00 0.00
5:53 am 05:53 Clear with Mist and Fog 39 3.9 37 2.8 93 93 NNE 7 11 29.67 1005 5 8 0.00 0.00
6:53 am 06:53 Clear with Mist and Fog 40 4.4 37 2.8 89 89 NE 5 7 29.68 1005 5 8 0.00 0.00
7:53 am 07:53 Sunny with Mist and Fog 43 6.1 40 4.4 89 89 ENE 10 17 29.65 1004 4 6 0.00 0.00
8:53 am 08:53 Hazy 46 7.8 41 5 83 83 ENE 16 26 29.62 1003 5 8 0.00 0.00
9:53 am 09:53 Sunny 50 10 41 5 71 71 ENE 16 26 29.62 1003 7 11 0.00 0.00
10:53 am 10:53 Sunny 53 11.7 41 5 64 64 E 17 28 29.61 1003 10 16 0.00 0.00
11:53 am 11:53 Sunny 60 15.6 42 5.6 52 52 E 22 35 29.59 1002 10 16 0.00 0.00
12:53 pm 12:53 Sunny 62 16.7 42 5.6 48 48 E 16 26 29.57 1001 10 16 0.00 0.00
1:53 pm 13:53 Sunny 65 18.3 44 6.7 47 47 E 21 33 29.53 1000 10 16 0.00 0.00
2:53 pm 14:53 Sunny 66 18.9 45 7.2 47 47 E 18 30 29.49 999 10 16 0.00 0.00
3:53 pm 15:53 Sunny 67 19.4 46 7.8 47 47 E 20 31 29.45 997 9 14 0.00 0.00
4:53 pm 16:53 Sunny 68 20 46 7.8 45 45 E 17 28 29.43 997 10 16 0.00 0.00
5:53 pm 17:53 Sunny 69 20.6 48 8.9 47 47 E 17 28 29.41 996 10 16 0.00 0.00
6:53 pm 18:53 Sunny 67 19.4 46 7.8 47 47 ENE 18 30 29.39 995 10 16 0.00 0.00
7:53 pm 19:53 Sunny 63 17.2 44 6.7 50 50 ENE 16 26 29.39 995 10 16 0.00 0.00
8:53 pm 20:53 Clear 59 15 43 6.1 56 56 ENE 18 30 29.36 994 10 16 0.00 0.00
9:53 pm 21:53 Clear 57 13.9 43 6.1 60 60 ENE 16 26 29.36 994 10 16 0.00 0.00
10:53 pm 22:53 Clear 54 12.2 42 5.6 64 64 NE 17 28 29.33 993 10 16 0.00 0.00
11:53 pm 23:53 Clear 54 12.2 42 5.6 64 64 ENE 23 37 29.28 992 10 16 0.00 0.00

Powered by AerisWeather